Time,TemperatureF,DewpointF,PressureIn,WindDirection,WindDirectionDegrees,WindSpeedMPH,WindSpeedGustMPH,Humidity,HourlyPrecipIn,Conditions,Clouds,dailyrainin,SoftwareType,DateUTC
2013-04-21 08:56:00,42.0,24.0,30.12,North,360,5.0,0.0,48,0.00,,,0.00,Rainwise IP-100,2013-04-21 12:56:00,
2013-04-21 09:46:00,43.0,24.0,30.14,SW,225,7.0,12.0,45,0.00,,,0.00,Rainwise IP-100,2013-04-21 13:46:00,
2013-04-21 11:34:00,47.0,24.0,30.17,WSW,247,2.0,16.0,41,0.00,,,0.00,Rainwise IP-100,2013-04-21 15:34:00,
2013-04-21 11:39:00,46.0,24.0,30.17,North,360,2.0,13.0,42,0.00,,,0.00,Rainwise IP-100,2013-04-21 15:39:00,
2013-04-21 11:46:00,46.0,21.0,30.18,NE,45,7.0,7.0,37,0.00,,,0.00,Rainwise IP-100,2013-04-21 15:46:00,
2013-04-21 11:51:00,46.0,21.0,30.18,NE,45,9.0,13.0,37,0.00,,,0.00,Rainwise IP-100,2013-04-21 15:51:00,
2013-04-21 12:20:00,46.0,21.0,30.20,ENE,67,1.0,13.0,36,0.00,,,0.00,Rainwise IP-100,2013-04-21 16:20:00,
2013-04-21 12:25:00,46.0,21.0,30.20,North,360,6.0,10.0,36,0.00,,,0.00,Rainwise IP-100,2013-04-21 16:25:00,
2013-04-21 12:30:00,46.0,21.0,30.20,West,270,4.0,10.0,36,0.00,,,0.00,Rainwise IP-100,2013-04-21 16:30:00,
2013-04-21 12:48:00,48.0,23.0,30.20,NNE,22,7.0,10.0,34,0.00,,,0.00,Rainwise IP-100,2013-04-21 16:48:00,
2013-04-21 12:53:00,47.0,24.0,30.20,NE,45,5.0,12.0,40,0.00,,,0.00,Rainwise IP-100,2013-04-21 16:53:00,
2013-04-21 12:58:00,47.0,24.0,30.20,East,90,3.0,6.0,40,0.00,,,0.00,Rainwise IP-100,2013-04-21 16:58:00,
2013-04-21 13:03:00,48.0,24.0,30.20,NNE,22,4.0,7.0,38,0.00,,,0.00,Rainwise IP-100,2013-04-21 17:03:00,
2013-04-21 13:08:00,47.0,18.0,30.20,NNE,22,9.0,9.0,31,0.00,,,0.00,Rainwise IP-100,2013-04-21 17:08:00,
2013-04-21 13:13:00,47.0,21.0,30.21,North,360,8.0,15.0,33,0.00,,,0.00,Rainwise IP-100,2013-04-21 17:13:00,
2013-04-21 13:18:00,48.0,24.0,30.21,NE,45,3.0,13.0,37,0.00,,,0.00,Rainwise IP-100,2013-04-21 17:18:00,
2013-04-21 13:23:00,48.0,24.0,30.21,North,360,5.0,5.0,37,0.00,,,0.00,Rainwise IP-100,2013-04-21 17:23:00,
2013-04-21 13:37:00,48.0,21.0,30.22,North,360,9.0,9.0,32,0.00,,,0.00,Rainwise IP-100,2013-04-21 17:37:00,
2013-04-21 13:42:00,48.0,21.0,30.22,West,270,3.0,9.0,32,0.00,,,0.00,Rainwise IP-100,2013-04-21 17:42:00,
2013-04-21 13:52:00,49.0,23.0,30.22,North,360,2.0,9.0,33,0.00,,,0.00,Rainwise IP-100,2013-04-21 17:52:00,
2013-04-21 13:57:00,49.0,26.0,30.22,East,90,3.0,20.0,40,0.00,,,0.00,Rainwise IP-100,2013-04-21 17:57:00,
2013-04-21 14:02:00,49.0,23.0,30.25,West,270,3.0,10.0,35,0.00,,,0.00,Rainwise IP-100,2013-04-21 18:02:00,
2013-04-21 14:07:00,49.0,21.0,30.25,NNE,22,10.0,12.0,32,0.00,,,0.00,Rainwise IP-100,2013-04-21 18:07:00,
2013-04-21 14:12:00,48.0,21.0,30.24,West,270,7.0,19.0,32,0.00,,,0.00,Rainwise IP-100,2013-04-21 18:12:00,
2013-04-21 14:17:00,49.0,28.0,30.24,ESE,112,1.0,9.0,43,0.00,,,0.00,Rainwise IP-100,2013-04-21 18:17:00,
2013-04-21 14:22:00,49.0,21.0,30.24,North,360,5.0,16.0,30,0.00,,,0.00,Rainwise IP-100,2013-04-21 18:22:00,
2013-04-21 14:27:00,49.0,21.0,30.24,ENE,67,10.0,11.0,30,0.00,,,0.00,Rainwise IP-100,2013-04-21 18:27:00,
2013-04-21 14:32:00,48.0,21.0,30.24,North,360,6.0,13.0,31,0.00,,,0.00,Rainwise IP-100,2013-04-21 18:32:00,
2013-04-21 14:37:00,48.0,18.0,30.24,NE,45,6.0,14.0,30,0.00,,,0.00,Rainwise IP-100,2013-04-21 18:37:00,
2013-04-21 14:42:00,49.0,18.0,30.23,North,360,7.0,17.0,28,0.00,,,0.00,Rainwise IP-100,2013-04-21 18:42:00,
2013-04-21 14:47:00,49.0,21.0,30.23,NNE,22,4.0,12.0,30,0.00,,,0.00,Rainwise IP-100,2013-04-21 18:47:00,
2013-04-21 14:52:00,50.0,18.0,30.23,North,360,6.0,9.0,27,0.00,,,0.00,Rainwise IP-100,2013-04-21 18:52:00,
2013-04-21 14:57:00,50.0,18.0,30.23,North,360,13.0,13.0,28,0.00,,,0.00,Rainwise IP-100,2013-04-21 18:57:00,
2013-04-21 15:02:00,48.0,18.0,30.23,NE,45,10.0,17.0,30,0.00,,,0.00,Rainwise IP-100,2013-04-21 19:02:00,
2013-04-21 15:07:00,49.0,18.0,30.23,North,360,10.0,17.0,28,0.00,,,0.00,Rainwise IP-100,2013-04-21 19:07:00,
2013-04-21 15:12:00,50.0,28.0,30.23,West,270,2.0,11.0,43,0.00,,,0.00,Rainwise IP-100,2013-04-21 19:12:00,
2013-04-21 15:17:00,50.0,23.0,30.23,North,360,7.0,10.0,33,0.00,,,0.00,Rainwise IP-100,2013-04-21 19:17:00,
2013-04-21 15:22:00,49.0,16.0,30.23,NNE,22,7.0,14.0,27,0.00,,,0.00,Rainwise IP-100,2013-04-21 19:22:00,
2013-04-21 15:26:00,50.0,24.0,30.23,NNE,22,5.0,11.0,35,0.00,,,0.00,Rainwise IP-100,2013-04-21 19:26:00,
2013-04-21 15:31:00,51.0,21.0,30.23,SW,225,3.0,10.0,30,0.00,,,0.00,Rainwise IP-100,2013-04-21 19:31:00,
2013-04-21 15:36:00,51.0,18.0,30.23,NE,45,11.0,11.0,27,0.00,,,0.00,Rainwise IP-100,2013-04-21 19:36:00,
2013-04-21 15:41:00,50.0,16.0,30.24,NNE,22,7.0,20.0,26,0.00,,,0.00,Rainwise IP-100,2013-04-21 19:41:00,
2013-04-21 15:46:00,50.0,16.0,30.24,North,360,7.0,14.0,25,0.00,,,0.00,Rainwise IP-100,2013-04-21 19:46:00,
2013-04-21 15:51:00,50.0,16.0,30.24,North,360,5.0,10.0,24,0.00,,,0.00,Rainwise IP-100,2013-04-21 19:51:00,
2013-04-21 15:56:00,51.0,18.0,30.24,West,270,6.0,12.0,27,0.00,,,0.00,Rainwise IP-100,2013-04-21 19:56:00,
2013-04-21 16:01:00,51.0,16.0,30.24,NE,45,7.0,11.0,24,0.00,,,0.00,Rainwise IP-100,2013-04-21 20:01:00,
2013-04-21 16:06:00,51.0,18.0,30.24,NE,45,7.0,10.0,27,0.00,,,0.00,Rainwise IP-100,2013-04-21 20:06:00,
2013-04-21 16:11:00,50.0,16.0,30.22,NE,45,12.0,13.0,25,0.00,,,0.00,Rainwise IP-100,2013-04-21 20:11:00,
2013-04-21 16:16:00,49.0,16.0,30.22,NNE,22,8.0,17.0,25,0.00,,,0.00,Rainwise IP-100,2013-04-21 20:16:00,
2013-04-21 16:21:00,49.0,16.0,30.20,NNE,22,4.0,13.0,26,0.00,,,0.00,Rainwise IP-100,2013-04-21 20:21:00,
2013-04-21 16:26:00,50.0,14.0,30.20,NE,45,7.0,10.0,23,0.00,,,0.00,Rainwise IP-100,2013-04-21 20:26:00,
2013-04-21 16:31:00,50.0,14.0,30.21,NNE,22,4.0,12.0,23,0.00,,,0.00,Rainwise IP-100,2013-04-21 20:31:00,
2013-04-21 16:36:00,50.0,16.0,30.21,NNE,22,8.0,10.0,24,0.00,,,0.00,Rainwise IP-100,2013-04-21 20:36:00,
2013-04-21 16:41:00,50.0,14.0,30.21,NE,45,6.0,13.0,23,0.00,,,0.00,Rainwise IP-100,2013-04-21 20:41:00,
2013-04-21 16:46:00,50.0,14.0,30.21,NE,45,8.0,10.0,22,0.00,,,0.00,Rainwise IP-100,2013-04-21 20:46:00,
2013-04-21 16:51:00,49.0,14.0,30.22,North,360,5.0,15.0,22,0.00,,,0.00,Rainwise IP-100,2013-04-21 20:51:00,
2013-04-21 16:56:00,49.0,14.0,30.22,NE,45,7.0,13.0,22,0.00,,,0.00,Rainwise IP-100,2013-04-21 20:56:00,
2013-04-21 17:01:00,50.0,11.0,30.22,ENE,67,12.0,18.0,20,0.00,,,0.00,Rainwise IP-100,2013-04-21 21:01:00,
2013-04-21 17:06:00,49.0,11.0,30.22,North,360,7.0,20.0,20,0.00,,,0.00,Rainwise IP-100,2013-04-21 21:06:00,
2013-04-21 17:11:00,49.0,14.0,30.22,NE,45,6.0,17.0,22,0.00,,,0.00,Rainwise IP-100,2013-04-21 21:11:00,
2013-04-21 17:16:00,49.0,11.0,30.22,NE,45,6.0,12.0,20,0.00,,,0.00,Rainwise IP-100,2013-04-21 21:16:00,
2013-04-21 17:21:00,49.0,11.0,30.23,NNE,22,6.0,12.0,20,0.00,,,0.00,Rainwise IP-100,2013-04-21 21:21:00,
2013-04-21 17:26:00,49.0,14.0,30.23,ENE,67,10.0,13.0,22,0.00,,,0.00,Rainwise IP-100,2013-04-21 21:26:00,
2013-04-21 17:31:00,49.0,14.0,30.23,NNE,22,16.0,16.0,22,0.00,,,0.00,Rainwise IP-100,2013-04-21 21:31:00,
2013-04-21 17:36:00,49.0,18.0,30.24,WSW,247,5.0,16.0,29,0.00,,,0.00,Rainwise IP-100,2013-04-21 21:36:00,
2013-04-21 17:41:00,49.0,14.0,30.24,East,90,4.0,10.0,23,0.00,,,0.00,Rainwise IP-100,2013-04-21 21:41:00,
2013-04-21 17:46:00,50.0,16.0,30.24,North,360,4.0,7.0,26,0.00,,,0.00,Rainwise IP-100,2013-04-21 21:46:00,
2013-04-21 17:51:00,50.0,14.0,30.24,NE,45,8.0,8.0,22,0.00,,,0.00,Rainwise IP-100,2013-04-21 21:51:00,
2013-04-21 17:56:00,49.0,11.0,30.24,NNE,22,5.0,15.0,20,0.00,,,0.00,Rainwise IP-100,2013-04-21 21:56:00,
2013-04-21 18:01:00,49.0,11.0,30.24,North,360,7.0,11.0,20,0.00,,,0.00,Rainwise IP-100,2013-04-21 22:01:00,
2013-04-21 18:06:00,48.0,11.0,30.24,North,360,7.0,11.0,21,0.00,,,0.00,Rainwise IP-100,2013-04-21 22:06:00,
2013-04-21 18:11:00,48.0,11.0,30.25,NNE,22,5.0,10.0,22,0.00,,,0.00,Rainwise IP-100,2013-04-21 22:11:00,
2013-04-21 18:13:00,48.0,11.0,30.25,NNE,22,5.0,10.0,22,0.00,,,0.00,Rainwise IP-100,2013-04-21 22:13:00,
2013-04-21 18:18:00,47.0,11.0,30.25,NE,45,8.0,11.0,21,0.00,,,0.00,Rainwise IP-100,2013-04-21 22:18:00,
2013-04-21 18:23:00,47.0,11.0,30.25,NE,45,6.0,13.0,22,0.00,,,0.00,Rainwise IP-100,2013-04-21 22:23:00,
2013-04-21 18:28:00,47.0,11.0,30.25,North,360,6.0,10.0,22,0.00,,,0.00,Rainwise IP-100,2013-04-21 22:28:00,
2013-04-21 18:33:00,46.0,11.0,30.25,NE,45,3.0,9.0,22,0.00,,,0.00,Rainwise IP-100,2013-04-21 22:33:00,
2013-04-21 18:38:00,46.0,11.0,30.25,North,360,6.0,6.0,23,0.00,,,0.00,Rainwise IP-100,2013-04-21 22:38:00,
2013-04-21 18:42:00,46.0,11.0,30.25,NNE,22,9.0,10.0,23,0.00,,,0.00,Rainwise IP-100,2013-04-21 22:42:00,
2013-04-21 18:51:00,46.0,11.0,30.26,NNE,22,5.0,10.0,23,0.00,,,0.00,Rainwise IP-100,2013-04-21 22:51:00,
2013-04-21 18:56:00,46.0,11.0,30.26,NE,45,9.0,9.0,23,0.00,,,0.00,Rainwise IP-100,2013-04-21 22:56:00,
2013-04-21 19:01:00,45.0,11.0,30.26,NNE,22,9.0,11.0,22,0.00,,,0.00,Rainwise IP-100,2013-04-21 23:01:00,
2013-04-21 19:06:00,45.0,11.0,30.26,NNE,22,9.0,11.0,22,0.00,,,0.00,Rainwise IP-100,2013-04-21 23:06:00,
2013-04-21 19:11:00,45.0,11.0,30.26,NE,45,5.0,11.0,23,0.00,,,0.00,Rainwise IP-100,2013-04-21 23:11:00,
2013-04-21 19:25:00,44.0,11.0,30.28,North,360,5.0,8.0,24,0.00,,,0.00,Rainwise IP-100,2013-04-21 23:25:00,
2013-04-21 19:30:00,44.0,11.0,30.28,North,360,6.0,10.0,23,0.00,,,0.00,Rainwise IP-100,2013-04-21 23:30:00,
2013-04-21 19:35:00,44.0,11.0,30.30,North,360,6.0,9.0,23,0.00,,,0.00,Rainwise IP-100,2013-04-21 23:35:00,
2013-04-21 19:40:00,44.0,11.0,30.30,North,360,5.0,9.0,24,0.00,,,0.00,Rainwise IP-100,2013-04-21 23:40:00,
2013-04-21 19:45:00,43.0,11.0,30.29,North,360,4.0,7.0,24,0.00,,,0.00,Rainwise IP-100,2013-04-21 23:45:00,
2013-04-21 19:50:00,43.0,8.0,30.29,North,360,4.0,6.0,23,0.00,,,0.00,Rainwise IP-100,2013-04-21 23:50:00,
2013-04-21 19:55:00,44.0,11.0,30.31,North,360,4.0,10.0,24,0.00,,,0.00,Rainwise IP-100,2013-04-21 23:55:00,
2013-04-21 20:00:00,44.0,11.0,30.31,NE,45,7.0,10.0,24,0.00,,,0.00,Rainwise IP-100,2013-04-22 00:00:00,
2013-04-21 20:05:00,43.0,11.0,30.31,North,360,7.0,9.0,24,0.00,,,0.00,Rainwise IP-100,2013-04-22 00:05:00,
2013-04-21 20:10:00,43.0,11.0,30.31,North,360,5.0,8.0,24,0.00,,,0.00,Rainwise IP-100,2013-04-22 00:10:00,
2013-04-21 20:15:00,43.0,11.0,30.30,NNE,22,4.0,8.0,25,0.00,,,0.00,Rainwise IP-100,2013-04-22 00:15:00,
2013-04-21 20:20:00,43.0,11.0,30.30,NNE,22,5.0,9.0,25,0.00,,,0.00,Rainwise IP-100,2013-04-22 00:20:00,
2013-04-21 20:25:00,43.0,11.0,30.30,North,360,5.0,9.0,25,0.00,,,0.00,Rainwise IP-100,2013-04-22 00:25:00,
2013-04-21 20:30:00,43.0,11.0,30.30,North,360,7.0,9.0,26,0.00,,,0.00,Rainwise IP-100,2013-04-22 00:30:00,
2013-04-21 20:35:00,43.0,11.0,30.30,NNE,22,4.0,13.0,26,0.00,,,0.00,Rainwise IP-100,2013-04-22 00:35:00,
2013-04-21 20:40:00,43.0,11.0,30.30,North,360,6.0,10.0,25,0.00,,,0.00,Rainwise IP-100,2013-04-22 00:40:00,
2013-04-21 20:45:00,43.0,11.0,30.31,North,360,4.0,10.0,25,0.00,,,0.00,Rainwise IP-100,2013-04-22 00:45:00,
2013-04-21 20:50:00,43.0,11.0,30.31,ENE,67,7.0,8.0,26,0.00,,,0.00,Rainwise IP-100,2013-04-22 00:50:00,
2013-04-21 20:55:00,43.0,11.0,30.32,North,360,3.0,9.0,26,0.00,,,0.00,Rainwise IP-100,2013-04-22 00:55:00,
2013-04-21 21:00:00,43.0,11.0,30.32,NE,45,4.0,11.0,26,0.00,,,0.00,Rainwise IP-100,2013-04-22 01:00:00,
2013-04-21 21:05:00,43.0,11.0,30.32,NE,45,6.0,10.0,26,0.00,,,0.00,Rainwise IP-100,2013-04-22 01:05:00,
2013-04-21 21:10:00,43.0,11.0,30.32,NNE,22,9.0,9.0,26,0.00,,,0.00,Rainwise IP-100,2013-04-22 01:10:00,
2013-04-21 21:15:00,43.0,11.0,30.32,NE,45,4.0,11.0,25,0.00,,,0.00,Rainwise IP-100,2013-04-22 01:15:00,
2013-04-21 21:20:00,43.0,11.0,30.32,NNE,22,10.0,10.0,25,0.00,,,0.00,Rainwise IP-100,2013-04-22 01:20:00,
2013-04-21 21:25:00,43.0,11.0,30.32,NE,45,7.0,11.0,26,0.00,,,0.00,Rainwise IP-100,2013-04-22 01:25:00,
2013-04-21 21:30:00,43.0,11.0,30.32,NNE,22,7.0,15.0,25,0.00,,,0.00,Rainwise IP-100,2013-04-22 01:30:00,
2013-04-21 21:35:00,43.0,11.0,30.33,North,360,5.0,13.0,24,0.00,,,0.00,Rainwise IP-100,2013-04-22 01:35:00,
2013-04-21 21:40:00,43.0,11.0,30.33,NE,45,5.0,13.0,25,0.00,,,0.00,Rainwise IP-100,2013-04-22 01:40:00,
2013-04-21 21:45:00,43.0,11.0,30.33,North,360,7.0,13.0,24,0.00,,,0.00,Rainwise IP-100,2013-04-22 01:45:00,
2013-04-21 21:50:00,43.0,11.0,30.33,NNE,22,8.0,15.0,24,0.00,,,0.00,Rainwise IP-100,2013-04-22 01:50:00,
2013-04-21 21:55:00,43.0,11.0,30.33,NE,45,7.0,10.0,25,0.00,,,0.00,Rainwise IP-100,2013-04-22 01:55:00,
2013-04-21 22:00:00,43.0,11.0,30.33,North,360,4.0,11.0,26,0.00,,,0.00,Rainwise IP-100,2013-04-22 02:00:00,
2013-04-21 22:05:00,43.0,11.0,30.34,NE,45,5.0,13.0,25,0.00,,,0.00,Rainwise IP-100,2013-04-22 02:05:00,
2013-04-21 22:10:00,42.0,11.0,30.34,NE,45,3.0,9.0,26,0.00,,,0.00,Rainwise IP-100,2013-04-22 02:10:00,
2013-04-21 22:15:00,42.0,11.0,30.34,NE,45,8.0,9.0,27,0.00,,,0.00,Rainwise IP-100,2013-04-22 02:15:00,
2013-04-21 22:20:00,42.0,11.0,30.34,NE,45,6.0,9.0,27,0.00,,,0.00,Rainwise IP-100,2013-04-22 02:20:00,
2013-04-21 22:25:00,42.0,11.0,30.34,North,360,6.0,10.0,27,0.00,,,0.00,Rainwise IP-100,2013-04-22 02:25:00,
2013-04-21 22:30:00,42.0,11.0,30.34,NNE,22,9.0,11.0,26,0.00,,,0.00,Rainwise IP-100,2013-04-22 02:30:00,
2013-04-21 22:35:00,42.0,11.0,30.35,NE,45,3.0,9.0,27,0.00,,,0.00,Rainwise IP-100,2013-04-22 02:35:00,
2013-04-21 22:40:00,42.0,11.0,30.35,North,360,3.0,9.0,27,0.00,,,0.00,Rainwise IP-100,2013-04-22 02:40:00,
2013-04-21 22:45:00,42.0,11.0,30.35,NNE,22,6.0,8.0,27,0.00,,,0.00,Rainwise IP-100,2013-04-22 02:45:00,
2013-04-21 22:50:00,42.0,11.0,30.35,North,360,7.0,9.0,27,0.00,,,0.00,Rainwise IP-100,2013-04-22 02:50:00,
2013-04-21 22:55:00,42.0,11.0,30.36,NE,45,4.0,12.0,27,0.00,,,0.00,Rainwise IP-100,2013-04-22 02:55:00,
2013-04-21 23:00:00,42.0,14.0,30.36,NNE,22,6.0,10.0,28,0.00,,,0.00,Rainwise IP-100,2013-04-22 03:00:00,
2013-04-21 23:05:00,41.0,11.0,30.36,NE,45,5.0,9.0,28,0.00,,,0.00,Rainwise IP-100,2013-04-22 03:05:00,
2013-04-21 23:10:00,42.0,14.0,30.36,North,360,6.0,12.0,29,0.00,,,0.00,Rainwise IP-100,2013-04-22 03:10:00,
2013-04-21 23:15:00,42.0,11.0,30.36,NNE,22,5.0,10.0,27,0.00,,,0.00,Rainwise IP-100,2013-04-22 03:15:00,
2013-04-21 23:20:00,42.0,11.0,30.36,NNE,22,10.0,13.0,27,0.00,,,0.00,Rainwise IP-100,2013-04-22 03:20:00,
2013-04-21 23:25:00,42.0,11.0,30.36,North,360,7.0,11.0,27,0.00,,,0.00,Rainwise IP-100,2013-04-22 03:25:00,
2013-04-21 23:30:00,41.0,11.0,30.36,NE,45,5.0,13.0,27,0.00,,,0.00,Rainwise IP-100,2013-04-22 03:30:00,
2013-04-21 23:35:00,41.0,11.0,30.36,NE,45,4.0,11.0,28,0.00,,,0.00,Rainwise IP-100,2013-04-22 03:35:00,
2013-04-21 23:40:00,41.0,11.0,30.36,NNE,22,6.0,11.0,28,0.00,,,0.00,Rainwise IP-100,2013-04-22 03:40:00,
2013-04-21 23:45:00,41.0,14.0,30.36,NNE,22,5.0,10.0,29,0.00,,,0.00,Rainwise IP-100,2013-04-22 03:45:00,
2013-04-21 23:50:00,41.0,14.0,30.36,NE,45,7.0,8.0,29,0.00,,,0.00,Rainwise IP-100,2013-04-22 03:50:00,
2013-04-21 23:55:00,41.0,14.0,30.36,NE,45,9.0,11.0,29,0.00,,,0.00,Rainwise IP-100,2013-04-22 03:55:00,